Location: Dieppe
(49.9230°N, 1.0775°E)
Time: 19:57:48
(UTC+02:00)

ISS - Pass Details

Date: 29 May 2018
Orbit: 402 x 406 km, 51.6° (Epoch: 20 June)

Event Time Altitude Azimuth Distance (km) Brightness Sun altitude
Rises 01:44:17 0° 287° (WNW) 2,323 0.3 -18.5°
Reaches altitude 10° 01:46:28 10° 277° (W) 1,460 -0.9 -18.5°
Enters shadow 01:47:57 21° 260° (W) 957 -2.1 -18.5°
